Theta_e
312 313 313 313 312 311 311 311 312 312 312 312 312 313 313 312 312 313 313 313 313 313 313 313 313 313 307 297 297 303 320 314 313 315 309 305 299 297 293 296 299 300 307 311 310 310 312
312 312 312 312 311 311 311 311 311 312 312 313 312 312 312 312 312 313 313 313 313 313 312 312 313 312 301 290 303 306 306 305 305 303 303 301 300 300 297 297 296 299 300 302 306 308 309
312 312 311 311 311 311 311 312 312 311 312 313 313 312 312 312 312 313 313 313 312 313 312 313 313 309 300 295 306 304 302 299 302 301 299 305 305 302 300 297 302 301 297 299 301 301 303
310 310 311 311 311 311 311 311 311 311 311 311 312 312 311 311 311 312 313 312 312 312 313 314 313 307 296 306 306 305 304 303 304 303 302 303 302 297 296 301 300 296 295 291 299 301 303
310 310 311 312 311 311 310 311 311 310 310 310 312 312 311 311 311 311 312 312 312 313 314 313 306 302 294 310 304 306 304 300 302 302 301 305 299 295 295 292 290 293 290 291 295 301 301
310 310 310 311 310 311 310 309 309 310 310 310 311 311 311 311 311 311 311 310 311 312 312 311 309 299 301 298 305 309 306 304 300 300 299 296 293 290 289 289 285 288 290 293 293 298 300
309 310 309 309 309 308 308 308 308 309 309 309 309 310 310 311 311 311 308 301 297 293 297 295 295 299 301 304 308 305 307 303 301 297 288 292 286 285 289 291 293 294 293 293 295 300 299
308 308 308 308 308 308 308 309 308 308 309 309 309 309 310 311 311 311 304 297 298 297 289 298 298 297 300 300 294 298 304 295 293 288 291 288 285 290 293 293 293 292 290 290 295 298 297
308 308 308 308 307 308 307 308 309 309 309 309 309 309 310 310 310 304 300 300 304 300 289 293 300 299 297 299 294 295 299 296 291 288 288 285 288 294 293 291 290 291 289 290 291 296 298
307 308 308 307 308 308 307 307 307 308 309 309 309 309 309 309 302 300 298 304 303 299 282 289 294 297 301 298 293 300 301 296 291 287 288 286 291 289 288 289 291 287 294 295 294 292 286
307 307 307 308 308 308 308 308 307 308 308 309 309 309 309 308 299 297 303 301 302 295 273 291 294 303 299 294 296 299 302 296 290 289 288 285 288 287 287 289 294 289 296 294 294 290 288
306 307 307 307 307 307 308 308 308 308 308 308 308 309 308 303 299 302 304 301 299 282 272 287 294 292 292 294 295 297 298 301 300 291 291 289 294 291 289 292 292 294 292 292 292 288 282
306 306 306 307 308 308 308 308 308 308 308 308 308 308 306 305 297 303 300 295 280 274 289 286 287 290 290 289 291 293 291 291 288 285 284 289 291 296 296 289 292 289 283 278 278 279 281
306 306 307 307 308 308 308 308 308 308 307 308 307 306 304 305 303 302 296 286 275 284 285 291 290 289 286 289 289 290 288 286 292 291 284 283 280 290 296 291 286 285 283 279 275 277 282
306 306 306 306 307 307 307 307 307 307 307 306 306 298 300 303 304 300 290 276 277 286 289 288 288 284 284 288 289 288 287 286 290 290 284 282 283 294 294 294 291 286 283 286 282 286 282
306 306 306 306 307 307 307 307 307 308 307 306 298 295 298 304 303 297 285 283 286 291 292 291 282 286 281 284 285 285 286 291 290 292 292 288 281 290 292 294 292 289 291 282 281 277 276
306 306 306 307 307 307 307 307 307 307 307 305 295 294 301 304 302 291 278 283 289 293 294 289 287 285 285 285 286 284 287 290 293 292 291 288 285 285 291 287 285 286 285 285 285 283 279
306 306 306 306 307 307 307 306 307 307 306 299 293 289 302 301 288 286 281 289 294 292 295 292 290 289 287 287 285 285 286 290 294 293 287 289 285 281 284 291 293 290 287 287 279 280 285
307 306 306 307 307 307 306 306 307 307 306 299 291 291 301 301 281 279 287 290 292 291 291 289 288 291 290 286 282 287 289 294 295 292 288 289 282 277 280 286 291 288 291 292 288 286 283
307 307 308 308 307 307 306 306 307 307 306 301 291 286 290 291 290 285 285 288 288 295 293 293 290 291 289 286 288 285 287 292 294 294 296 294 284 281 276 282 287 285 289 290 288 283 285
307 307 307 307 308 308 307 306 307 306 306 299 291 287 289 285 288 288 288 289 288 288 293 293 290 290 288 284 285 283 287 290 293 296 294 290 282 285 286 287 288 288 288 289 287 288 285
307 307 308 307 307 307 307 306 306 306 306 296 289 289 293 291 289 288 288 287 289 290 290 289 288 290 290 287 288 286 288 287 286 291 289 291 284 287 283 288 288 287 289 289 290 289 289
307 307 308 308 308 307 307 308 306 306 304 291 293 294 292 291 290 289 288 290 290 292 293 293 292 289 289 290 294 294 294 293 290 288 287 287 286 284 279 288 288 282 287 288 289 293 293
306 306 307 307 307 308 308 308 307 306 305 297 293 297 292 286 289 289 291 292 290 292 290 293 293 289 294 297 297 296 293 293 292 291 292 286 284 286 281 286 276 290 298 299 292 294 300
308 307 306 306 307 307 308 308 308 307 306 295 294 297 294 287 290 291 292 291 292 293 291 291 293 295 297 292 288 286 287 290 291 293 292 291 286 283 281 282 287 293 295 294 294 295 305
308 307 307 306 306 306 307 308 308 308 306 297 294 295 295 291 287 293 290 293 289 290 291 292 295 297 293 288 285 281 281 286 285 287 294 293 291 285 285 279 278 286 294 297 297 293 305
307 307 307 306 305 306 307 307 307 308 308 302 297 294 295 290 293 295 290 290 293 293 289 292 292 290 290 283 276 279 279 289 283 283 286 285 287 284 283 278 285 289 294 297 291 293 307
306 306 305 305 305 305 306 307 307 308 308 303 295 297 294 291 293 295 296 293 293 292 289 293 291 289 286 282 282 282 285 288 286 288 285 285 284 285 286 281 280 295 294 296 299 305 308
305 304 304 303 304 305 305 306 307 307 308 307 297 297 298 295 295 298 299 300 299 299 294 295 292 291 292 288 287 287 285 289 286 282 291 284 286 286 287 285 291 297 299 302 303 303 306
Wind_Speed
14 14 15 14 15 15 15 16 15 16 16 17 18 19 20 20 20 20 20 20 19 18 16 15 15 13 6 4 11 22 22 17 12 5 16 11 10 7 8 6 9 23 19 17 11 14 18
15 15 16 16 16 16 16 16 17 16 16 17 18 19 20 21 22 22 21 21 20 20 19 16 14 11 7 14 10 16 15 8 7 6 5 9 7 7 3 6 8 4 4 10 10 16 16
14 16 16 16 16 17 17 18 18 18 18 18 18 20 22 23 24 24 24 23 23 22 21 17 13 8 12 22 7 7 9 8 7 8 6 3 8 6 6 3 13 15 16 16 20 9 8
16 16 16 16 17 18 18 18 18 18 18 18 18 18 21 22 23 24 25 26 27 24 23 15 10 6 10 13 10 18 17 10 10 11 11 10 6 5 5 5 6 4 5 15 23 19 8
16 16 16 17 17 17 18 18 18 19 19 19 19 20 22 24 26 26 25 27 30 22 10 5 3 4 13 11 5 13 13 10 6 6 6 9 3 7 4 3 2 6 12 16 22 8 2
17 17 17 18 18 17 19 20 20 19 20 20 20 22 23 24 25 23 24 25 25 10 5 7 4 3 7 9 5 15 6 11 8 4 3 2 3 7 4 7 21 11 19 17 10 5 13
18 18 19 19 20 20 21 22 21 21 21 22 22 23 25 25 24 20 13 8 8 4 5 5 14 14 20 33 24 16 11 4 5 4 7 5 4 21 19 15 10 10 11 16 4 9 12
18 18 19 20 21 21 21 21 22 22 23 24 24 25 26 27 25 26 1 1 7 7 12 11 18 23 27 27 27 32 16 4 2 7 5 4 20 10 7 7 10 15 17 18 9 10 8
18 18 18 19 19 20 22 21 21 21 22 23 24 24 25 28 29 5 3 5 8 6 4 11 22 18 10 12 22 25 14 11 9 7 6 10 6 9 14 12 16 16 19 16 16 14 22
17 17 17 18 17 18 21 22 23 24 24 24 24 24 24 26 6 6 5 9 7 1 3 7 16 9 17 3 3 20 23 13 5 10 8 10 11 13 12 15 18 21 13 12 17 13 12
18 18 18 17 18 20 21 22 22 23 24 24 24 24 22 18 5 4 8 8 6 6 3 10 8 6 4 8 11 13 15 16 19 16 7 7 6 3 14 15 14 19 12 13 17 9 7
19 20 20 19 20 20 20 21 23 23 23 23 24 25 23 3 2 10 10 7 5 6 4 8 7 17 13 13 13 10 16 13 7 23 17 15 9 14 14 15 12 5 6 13 15 0 10
20 21 21 21 21 21 21 22 23 24 24 25 25 27 17 2 5 6 6 5 6 6 9 11 22 13 7 9 10 8 6 1 1 4 9 5 5 4 10 13 10 3 2 2 2 4 18
19 20 21 21 21 22 22 23 24 24 24 25 28 25 3 5 6 5 4 6 6 3 6 19 15 14 7 10 6 11 11 5 4 10 3 4 6 8 2 3 5 7 10 6 8 5 5
20 20 21 23 22 22 23 23 24 25 26 27 22 4 4 5 7 2 6 5 5 2 10 13 17 7 4 10 2 6 4 4 6 9 3 1 5 3 12 9 1 3 11 5 5 13 2
20 20 21 21 21 22 22 23 24 25 26 30 4 4 4 3 3 6 6 3 2 7 11 5 2 8 12 9 7 5 4 1 3 4 2 3 4 6 8 8 4 6 5 6 4 7 4
18 20 20 19 20 21 23 24 24 25 27 24 3 4 5 4 5 6 2 5 9 13 11 5 11 4 6 7 11 5 3 6 2 4 5 3 5 4 4 4 6 3 3 4 3 4 6
18 19 20 21 20 21 22 23 24 24 25 6 4 3 4 4 4 1 2 6 11 13 11 8 4 5 3 5 6 5 4 3 5 1 3 2 1 4 8 12 14 4 6 4 2 6 5
19 20 19 19 20 20 21 22 22 22 19 7 4 4 4 5 3 4 6 10 7 14 12 6 5 2 3 3 4 6 3 6 3 1 3 3 2 4 8 1 2 5 2 2 4 6 8
18 19 19 20 19 19 19 21 23 22 19 4 3 5 6 5 2 2 6 5 9 11 13 13 9 1 3 7 5 6 5 4 6 5 5 6 4 7 5 5 6 8 8 8 1 7 13
20 20 20 21 20 19 19 20 20 23 23 2 1 3 1 5 7 9 6 7 15 10 5 10 4 8 7 6 9 4 3 5 6 9 6 5 4 10 12 16 15 17 16 11 9 9 6
19 20 19 20 20 21 19 19 19 20 23 4 3 4 4 7 6 5 7 3 15 16 11 6 8 16 6 6 8 13 13 10 7 5 10 8 5 8 13 17 18 19 16 14 13 15 11
19 20 19 18 18 19 18 16 17 17 12 3 3 3 2 5 4 6 3 15 16 15 8 12 13 14 9 14 13 17 19 19 11 10 8 10 5 2 8 15 4 5 15 17 7 8 4
19 20 20 18 18 17 16 16 14 12 7 1 3 3 3 6 7 9 16 15 16 17 10 15 11 7 9 20 22 13 14 17 14 17 14 8 6 4 7 5 4 4 12 3 14 12 10
17 17 19 19 18 18 16 16 15 11 10 2 2 2 3 6 9 16 9 15 14 14 9 12 13 12 16 11 5 8 5 4 5 6 8 12 7 3 4 1 8 2 7 7 5 5 6
18 18 18 18 19 18 18 16 15 12 9 1 3 4 3 5 5 5 15 11 11 9 10 9 8 10 7 3 2 3 3 5 3 4 5 2 7 7 3 3 4 4 12 15 6 5 6
17 18 19 19 20 20 18 17 16 15 11 3 4 1 3 5 9 6 4 8 5 3 7 6 10 8 5 5 3 3 4 5 5 7 5 3 4 8 5 2 3 10 21 22 7 1 12
17 18 19 19 19 20 19 18 17 16 13 3 5 4 4 5 12 13 11 7 10 5 3 5 5 5 4 7 4 4 4 3 4 4 5 3 3 3 3 4 3 8 21 3 4 7 12
16 17 19 21 19 19 18 18 17 16 14 6 3 3 1 6 8 7 16 20 19 20 2 1 2 2 3 3 2 4 4 3 5 4 4 2 2 5 4 2 10 15 8 13 12 6 10
Wind_Direction
28 25 25 22 17 10 4 1 358 355 349 344 342 339 334 330 326 322 319 316 313 309 305 302 304 312 338 273 252 273 292 326 309 208 212 205 195 177 190 206 222 246 252 251 256 253 250
24 22 20 17 14 8 3 1 357 353 348 344 342 339 334 330 327 322 316 312 309 305 301 299 298 299 278 272 241 270 294 310 324 328 241 170 196 191 251 218 231 304 266 273 261 254 257
20 18 17 13 8 4 360 357 355 351 347 344 340 336 333 330 327 323 318 315 308 299 296 295 291 284 258 252 225 274 292 294 283 284 277 260 216 196 190 274 237 246 264 278 258 247 272
15 14 11 6 2 0 355 352 350 347 344 341 335 329 328 323 321 320 317 312 303 298 294 283 275 280 263 261 245 256 261 271 255 255 234 246 220 219 203 281 319 201 226 246 248 243 238
12 7 2 1 1 358 350 346 345 343 341 338 334 329 327 325 323 323 318 312 301 307 288 227 154 176 266 295 236 253 231 231 264 250 211 266 225 194 239 183 341 211 242 232 254 220 223
5 4 2 359 355 354 347 345 342 340 337 337 336 331 324 321 322 322 319 310 296 317 132 163 218 303 265 272 267 317 186 197 228 251 317 219 220 211 191 171 215 215 222 236 255 198 211
360 358 358 355 352 350 344 343 340 338 338 339 338 333 328 325 324 323 331 345 9 340 337 220 278 248 269 279 294 292 336 321 249 142 185 211 184 221 217 228 267 273 266 253 249 202 215
359 357 357 355 352 348 343 341 342 340 339 338 339 337 331 327 327 322 249 350 323 248 308 313 286 274 258 256 274 283 292 282 273 225 195 227 231 248 274 270 233 242 264 265 286 285 250
357 356 357 357 351 346 345 342 341 341 340 337 337 335 333 328 323 345 252 277 316 10 308 338 322 303 269 225 236 262 269 270 249 235 218 222 220 217 238 247 251 248 237 258 263 289 288
353 351 354 351 345 345 344 343 342 340 339 336 334 332 331 334 354 328 302 293 316 17 63 305 344 284 334 116 242 235 252 233 247 218 222 258 247 257 264 243 228 246 250 249 241 251 260
355 354 353 350 348 347 342 340 339 340 338 334 330 329 329 328 265 319 261 304 328 58 50 319 284 239 145 301 315 335 218 220 235 233 176 220 302 260 234 247 233 248 260 238 245 259 248
356 356 353 350 349 346 341 339 338 337 336 332 327 324 331 345 258 241 292 312 49 49 306 319 311 350 9 358 10 2 329 41 298 226 230 234 220 237 242 255 256 286 254 231 251 265 256
359 357 354 351 348 344 341 340 338 336 334 329 324 320 320 243 242 295 328 31 39 86 309 340 329 343 358 344 2 354 357 204 343 6 281 249 236 239 241 256 264 211 35 248 240 185 236
358 356 353 351 349 344 341 340 338 337 334 326 322 317 263 214 234 295 37 41 54 344 304 327 324 318 351 2 5 336 3 10 173 238 247 200 272 224 195 165 243 173 170 187 195 199 254
355 353 353 350 347 345 342 340 339 337 334 325 322 320 296 258 230 93 63 44 192 325 291 326 321 301 326 356 278 335 358 327 43 11 15 50 251 358 311 299 133 269 221 205 291 277 302
351 350 350 348 346 345 343 342 340 339 337 327 321 331 278 208 167 60 71 272 236 264 311 338 312 307 328 328 338 355 325 37 326 58 357 313 324 255 296 341 256 199 282 162 215 225 223
347 347 347 346 346 345 345 344 344 342 340 330 27 16 262 134 64 49 127 239 293 323 333 306 326 299 320 329 314 272 325 324 83 338 292 296 166 274 319 224 237 355 244 207 172 195 188
344 345 344 346 345 346 345 344 345 347 344 31 352 15 291 78 32 41 299 287 315 310 313 274 282 331 336 286 282 316 349 253 40 97 339 316 127 276 247 246 270 263 242 157 228 260 238
340 342 343 343 343 344 346 343 345 349 358 334 336 279 324 79 49 309 298 315 303 309 312 318 298 140 181 263 323 324 302 260 143 354 348 344 308 299 311 323 210 231 183 38 254 235 238
340 341 342 344 344 343 346 345 342 344 344 351 346 348 329 30 150 316 313 290 313 315 309 340 291 129 305 295 235 263 261 269 183 180 312 336 226 240 222 260 324 276 286 305 296 230 230
338 340 342 343 345 344 345 345 344 341 343 95 59 278 206 305 323 315 302 277 323 329 311 306 307 340 337 291 313 266 299 276 209 214 173 149 248 242 242 262 270 268 264 264 264 267 258
336 335 337 340 342 344 344 344 346 346 341 56 27 3 341 287 275 296 299 317 316 337 321 305 318 314 293 258 237 272 276 264 226 197 166 182 238 252 288 277 253 245 237 238 251 274 278
328 331 332 333 336 339 340 340 346 350 359 20 313 311 236 260 280 305 257 320 315 334 293 310 305 313 283 274 279 269 254 251 239 207 199 178 209 224 272 296 136 264 227 223 203 219 241
325 327 328 329 330 331 333 334 337 344 4 242 260 277 271 280 303 302 302 305 324 316 305 312 315 310 285 304 295 270 257 246 232 237 224 205 192 171 266 251 224 42 36 5 200 221 247
320 323 327 327 327 325 325 327 329 330 328 202 255 271 273 278 304 289 310 317 312 309 300 290 302 292 301 298 320 325 329 28 332 40 327 211 192 221 252 304 292 176 39 3 31 223 267
315 319 322 324 324 324 323 322 325 324 319 288 250 198 265 297 251 314 312 294 307 314 316 308 305 303 341 327 9 314 325 304 317 306 262 14 159 191 272 228 251 89 300 321 303 218 282
312 313 321 321 321 323 322 322 322 319 315 295 269 213 264 270 266 253 280 309 284 302 298 309 323 335 24 355 359 335 298 1 341 322 336 78 149 206 222 251 281 311 329 307 199 147 317
312 313 319 320 318 318 318 317 317 315 314 290 256 214 190 252 275 258 265 251 281 266 266 333 323 0 337 7 2 325 296 328 304 306 339 350 291 213 188 251 11 329 295 91 333 326 306
312 316 318 319 317 315 314 312 311 311 309 301 255 230 206 248 266 302 272 256 250 249 248 225 224 246 297 320 343 305 292 309 309 329 351 52 318 315 41 48 280 286 8 11 5 332 301